Wind_Speed
38 40 40 42 42 39 39 40 41 41 41 39 39 39 39 38 38 39 40 41 41 42 42 42 43 44 44 45 45 46 44 43 41 42 44 45 47 49 49 50 50 50 48
42 43 44 43 41 40 42 41 41 43 43 43 43 43 43 44 43 44 44 44 43 43 43 44 45 45 45 46 47 47 45 43 43 45 47 46 47 50 52 53 53 55 53
38 39 40 40 41 42 42 42 42 44 46 47 48 48 48 48 48 47 46 46 46 45 45 46 47 48 48 47 47 46 45 43 45 48 48 48 49 50 53 55 54 58 57
36 37 38 40 40 41 41 43 44 45 47 49 51 53 53 54 53 51 48 49 48 48 49 49 49 50 50 49 47 47 47 47 47 47 48 49 51 52 53 56 57 58 59
35 36 37 39 40 41 43 45 47 49 50 51 54 56 57 57 57 53 52 53 52 53 54 54 53 53 52 51 50 48 49 50 48 47 48 50 52 53 52 56 55 59 57
34 36 37 39 42 44 45 47 49 51 52 54 56 57 58 59 58 55 55 55 55 56 58 57 57 55 53 52 52 51 50 49 46 44 46 48 48 51 51 54 55 57 55
35 36 37 38 40 42 43 45 46 48 49 52 55 57 58 58 58 58 59 60 59 59 58 57 58 58 56 55 55 53 50 46 44 44 45 45 46 47 49 50 53 51 54
39 41 42 44 45 47 49 50 52 53 53 55 57 61 62 61 60 62 63 63 63 63 60 58 59 60 59 57 55 54 49 42 42 44 46 47 45 46 46 48 48 50 50
46 47 49 51 53 54 55 56 57 59 60 60 61 64 67 67 66 63 63 64 65 64 61 60 62 62 59 54 54 53 47 43 43 45 46 46 45 46 44 45 46 48 48
49 50 52 54 56 58 59 61 62 63 64 65 66 67 69 71 75 74 68 66 67 65 63 63 63 62 57 56 56 53 50 48 49 48 47 45 45 43 43 42 45 45 46
53 55 57 59 61 63 65 66 68 69 70 71 71 73 74 75 75 77 76 69 66 63 63 64 63 62 57 55 55 54 53 53 48 47 48 46 44 41 41 42 44 44 45
56 58 59 61 62 64 66 67 69 69 70 71 72 72 72 71 66 67 70 69 66 62 64 64 63 61 58 55 55 55 53 52 50 45 44 43 43 41 39 41 42 43 45
56 57 59 61 64 65 66 67 68 69 69 71 72 72 71 67 64 63 65 67 68 69 68 67 62 60 58 55 55 56 55 52 51 45 43 42 46 45 41 41 42 42 43
60 63 65 67 69 70 71 72 72 73 74 75 75 75 75 74 72 70 69 69 70 69 67 68 63 59 57 55 55 54 53 53 49 48 48 47 50 47 42 41 43 44 44
65 67 70 71 73 74 75 76 77 77 78 79 80 80 79 78 76 74 73 71 71 71 69 69 68 66 64 61 58 57 54 55 51 49 53 54 55 49 44 41 43 44 45
72 74 76 78 80 81 83 84 84 85 85 86 85 84 83 81 77 75 74 72 70 69 69 66 67 69 67 64 62 60 58 56 55 56 59 58 58 53 47 44 46 46 46
78 80 82 84 86 87 88 89 89 89 88 87 85 84 83 81 80 78 76 75 74 72 70 67 63 60 61 60 59 58 57 55 52 51 50 52 54 50 50 48 46 48 47
85 88 90 92 93 92 91 90 88 87 86 85 84 82 80 79 77 77 77 77 75 73 71 70 64 59 56 55 55 54 54 56 54 50 50 51 51 51 48 48 47 46 48
93 96 97 96 95 94 92 90 87 86 84 82 82 81 79 78 76 75 75 75 76 75 73 72 68 62 58 55 54 52 50 50 49 48 52 54 52 52 47 46 49 47 49
98 99 98 96 93 91 88 86 86 85 82 80 79 79 78 77 76 74 74 74 75 74 71 69 67 62 59 55 55 53 51 49 48 52 53 53 51 51 45 42 48 50 48
98 98 97 94 90 85 80 77 76 76 74 73 73 73 72 72 72 73 73 72 73 71 68 67 65 63 59 56 56 55 54 52 52 58 54 48 53 55 56 51 50 52 51
92 90 87 83 78 75 73 73 72 71 70 71 71 71 71 71 70 70 70 70 68 67 66 65 64 62 60 58 58 59 57 54 53 53 51 46 50 51 46 44 44 49 54
79 75 73 72 70 69 69 70 71 72 73 74 75 75 74 74 74 74 72 70 68 67 67 66 64 62 62 60 60 60 59 57 53 52 54 49 46 49 46 48 51 58 59
68 67 66 66 66 68 72 75 79 81 82 84 85 84 82 80 79 80 77 74 71 69 68 67 66 64 62 61 60 60 58 57 54 49 44 48 50 48 48 51 52 54 53
65 66 68 70 74 77 80 83 86 87 88 89 89 86 82 79 75 75 74 72 70 66 64 63 61 59 58 57 57 56 53 51 48 45 41 39 46 52 49 48 48 46 41
69 72 74 79 84 86 89 91 92 92 90 88 84 78 73 68 65 63 64 63 62 60 57 55 51 49 50 50 49 47 45 42 39 38 38 39 40 44 45 43 42 41 39
Wind_Direction
275 277 281 285 288 288 286 281 276 275 277 280 283 286 289 291 294 297 299 299 300 300 300 301 302 303 304 304 302 301 301 301 301 302 303 300 292 288 287 287 283 281 279
276 277 280 283 285 284 282 281 278 276 276 278 280 282 285 287 290 291 294 296 297 298 298 298 297 297 298 299 298 297 297 298 299 300 299 299 295 288 281 285 282 279 278
273 274 277 278 279 279 281 282 283 282 280 280 280 282 284 286 289 291 293 294 295 295 294 294 294 295 296 296 294 294 294 294 295 297 296 296 296 292 281 283 282 280 276
276 277 278 279 280 280 280 281 283 284 282 281 281 282 284 285 286 289 291 291 291 292 292 292 293 294 294 292 291 292 292 293 294 295 293 294 295 294 286 283 283 282 279
282 283 282 282 281 280 280 281 282 283 283 282 281 282 283 283 285 288 288 289 291 292 292 292 292 292 292 292 292 292 293 293 294 292 291 290 291 292 290 289 289 286 282
284 285 285 286 286 286 286 285 285 285 285 285 284 284 284 285 286 288 289 289 290 290 291 292 292 292 293 293 293 293 292 293 293 290 289 288 288 290 290 291 291 292 280
291 291 291 292 292 292 292 291 290 289 288 287 286 286 286 287 288 288 287 287 288 288 288 289 289 291 292 294 294 292 292 293 291 290 287 286 290 292 291 292 293 290 285
300 300 300 299 298 297 296 294 293 291 289 287 287 287 288 287 287 286 287 287 287 287 287 287 288 290 292 294 293 291 292 287 286 291 288 287 289 294 296 297 293 289 283
303 302 302 301 299 297 296 294 293 292 291 289 288 288 289 288 285 285 285 285 285 286 287 287 288 290 292 292 291 292 290 282 288 289 287 289 290 292 295 293 290 287 280
302 300 299 297 295 294 293 293 292 291 290 289 289 289 289 289 289 288 286 285 285 285 286 287 287 289 291 293 294 293 291 286 291 289 287 289 291 292 294 292 287 283 281
296 295 294 293 293 292 291 291 290 290 290 290 291 291 290 289 289 289 289 287 285 285 284 285 287 290 293 294 294 293 290 287 288 286 284 288 290 292 292 291 289 284 280
295 295 295 295 294 293 292 291 291 291 291 291 291 291 292 291 291 289 288 286 285 284 284 286 289 291 294 293 293 291 288 285 285 283 280 284 288 289 289 286 287 284 280
299 300 300 299 298 297 295 293 292 291 290 289 289 289 289 289 287 286 285 284 284 284 284 286 287 287 289 289 289 287 284 285 285 279 274 282 283 284 287 282 281 281 279
301 301 301 300 299 297 296 294 292 291 290 289 289 288 288 288 287 286 284 283 282 280 280 282 281 280 282 281 280 280 279 284 284 277 271 279 281 279 283 280 276 279 278
303 302 301 301 300 299 298 296 294 292 290 288 287 287 287 287 287 286 286 286 285 283 279 277 278 277 277 278 279 279 278 279 278 273 266 276 280 277 276 274 270 274 276
300 300 299 299 299 299 298 296 295 293 291 290 290 289 289 288 288 289 288 287 286 286 283 283 282 281 280 279 278 278 280 280 277 273 273 274 276 278 274 275 269 268 264
299 298 298 297 296 295 293 292 291 290 289 288 287 287 287 288 288 289 289 288 288 288 288 287 285 281 279 279 278 279 280 280 280 278 275 274 274 273 272 273 270 266 267
298 298 298 297 295 293 290 288 286 285 285 284 285 285 286 286 287 287 286 287 287 286 286 286 285 282 280 279 278 279 278 277 280 275 270 272 270 268 273 270 271 265 266
298 298 297 296 295 293 290 287 285 284 284 285 286 286 286 286 286 286 286 287 286 285 284 285 285 284 283 282 282 282 278 274 273 267 265 269 268 265 267 269 264 261 261
298 298 298 296 294 292 291 290 289 289 288 289 289 289 289 289 289 288 287 287 286 285 285 285 285 284 283 282 283 281 278 275 269 263 259 261 261 262 260 268 272 266 261
299 298 297 296 296 296 296 295 293 293 293 292 291 290 290 290 290 290 289 287 285 284 283 282 281 281 282 283 283 280 277 274 269 263 265 260 258 256 257 260 263 265 262
297 296 296 297 298 298 297 295 293 292 291 290 289 288 287 287 286 286 286 286 285 284 282 280 280 281 282 282 281 280 278 273 266 268 271 269 261 250 256 256 259 268 265
297 298 299 299 300 299 298 298 297 295 294 293 292 290 288 287 286 284 282 282 283 282 282 281 280 280 280 281 282 281 277 269 264 264 263 264 259 248 255 260 266 268 267
300 301 300 300 300 301 301 300 298 297 296 295 294 293 291 288 286 284 281 280 279 279 280 281 281 282 283 283 281 279 276 270 262 260 258 263 258 252 260 256 257 264 265
301 301 301 302 302 303 303 302 300 298 298 297 296 295 293 290 286 284 281 278 277 277 278 279 280 281 281 279 277 275 274 270 263 256 249 257 259 256 260 253 257 258 256
302 302 303 303 304 304 304 303 302 301 300 299 299 298 296 292 287 283 281 278 277 276 276 276 276 276 274 272 269 270 271 267 256 255 254 263 261 258 260 255 252 250 253
Height
5828 5825 5823 5821 5818 5817 5814 5811 5809 5806 5804 5801 5798 5795 5791 5789 5786 5783 5780 5775 5771 5767 5763 5760 5756 5752 5749 5746 5743 5739 5736 5732 5729 5725 5722 5719 5715 5712 5708 5706 5704 5702 5700
5819 5817 5815 5813 5811 5808 5806 5803 5800 5797 5795 5792 5789 5785 5782 5779 5776 5773 5770 5766 5763 5758 5754 5751 5747 5743 5739 5736 5733 5730 5726 5723 5719 5715 5711 5708 5704 5701 5698 5695 5692 5689 5688
5810 5808 5807 5805 5802 5800 5797 5794 5791 5788 5785 5782 5779 5775 5773 5770 5767 5763 5759 5755 5751 5747 5743 5740 5737 5734 5730 5725 5722 5719 5716 5713 5709 5705 5701 5697 5692 5689 5686 5683 5680 5678 5676
5805 5803 5800 5798 5795 5792 5790 5786 5783 5780 5776 5773 5769 5766 5763 5760 5756 5753 5750 5744 5740 5737 5733 5730 5726 5723 5719 5714 5710 5708 5705 5702 5699 5695 5690 5685 5681 5678 5674 5671 5669 5666 5664
5798 5795 5793 5790 5786 5784 5781 5778 5774 5770 5767 5763 5759 5755 5752 5748 5745 5742 5737 5732 5730 5726 5722 5719 5715 5710 5706 5702 5698 5695 5693 5690 5687 5682 5678 5674 5670 5667 5663 5660 5658 5655 5652
5790 5788 5786 5782 5779 5776 5773 5769 5765 5761 5757 5753 5748 5744 5740 5736 5733 5730 5725 5720 5717 5713 5709 5706 5702 5698 5694 5690 5686 5682 5679 5676 5672 5667 5664 5660 5657 5655 5651 5648 5646 5643 5641
5782 5780 5777 5774 5770 5767 5763 5760 5756 5752 5748 5742 5737 5733 5729 5726 5722 5718 5712 5707 5704 5698 5695 5691 5687 5685 5682 5677 5673 5668 5664 5662 5658 5654 5650 5647 5645 5643 5640 5637 5634 5631 5629
5774 5771 5768 5765 5762 5758 5753 5749 5745 5741 5737 5730 5725 5719 5717 5716 5711 5704 5699 5695 5691 5687 5684 5679 5674 5671 5669 5665 5660 5655 5651 5647 5643 5641 5638 5635 5632 5629 5627 5625 5622 5618 5616
5765 5761 5758 5754 5749 5745 5741 5736 5731 5726 5722 5717 5712 5706 5701 5699 5696 5694 5687 5682 5677 5674 5670 5666 5662 5657 5655 5651 5646 5642 5637 5632 5630 5627 5624 5622 5619 5617 5614 5612 5609 5606 5604
5753 5749 5746 5741 5736 5731 5727 5722 5716 5711 5706 5702 5697 5692 5686 5680 5674 5672 5673 5667 5661 5658 5654 5650 5646 5642 5640 5636 5631 5627 5623 5618 5615 5612 5610 5608 5606 5603 5601 5599 5595 5593 5592
5742 5738 5734 5729 5723 5717 5712 5707 5701 5695 5690 5685 5680 5674 5668 5663 5657 5650 5648 5649 5645 5642 5638 5634 5630 5626 5624 5620 5616 5613 5608 5604 5602 5599 5597 5595 5593 5591 5589 5585 5582 5580 5580
5730 5725 5720 5715 5709 5703 5697 5691 5685 5679 5673 5668 5662 5655 5649 5643 5639 5632 5626 5625 5624 5625 5621 5617 5614 5610 5606 5603 5601 5598 5593 5589 5587 5585 5583 5582 5580 5579 5577 5574 5570 5568 5567
5716 5711 5705 5700 5694 5688 5682 5676 5670 5663 5657 5651 5645 5638 5631 5626 5622 5617 5611 5606 5602 5603 5601 5599 5598 5594 5590 5588 5584 5580 5576 5573 5571 5569 5568 5567 5566 5565 5565 5561 5558 5556 5555
5702 5696 5690 5684 5677 5670 5664 5658 5653 5647 5640 5633 5627 5621 5615 5610 5605 5601 5595 5589 5584 5582 5580 5579 5578 5577 5574 5569 5566 5563 5559 5556 5554 5552 5552 5552 5551 5550 5550 5548 5546 5543 5541
5687 5681 5674 5667 5660 5653 5645 5638 5632 5626 5619 5613 5607 5601 5595 5590 5585 5581 5576 5570 5564 5561 5563 5563 5556 5556 5555 5552 5549 5546 5542 5542 5539 5536 5536 5536 5535 5535 5534 5533 5532 5530 5529
5671 5664 5657 5649 5641 5633 5625 5617 5611 5604 5597 5591 5585 5579 5574 5569 5564 5560 5555 5551 5544 5538 5537 5544 5541 5539 5535 5534 5535 5531 5527 5524 5522 5520 5520 5519 5518 5519 5520 5519 5518 5517 5516
5654 5645 5637 5629 5621 5612 5604 5594 5587 5579 5573 5568 5563 5557 5553 5547 5542 5538 5533 5529 5526 5521 5514 5521 5519 5518 5515 5513 5514 5512 5509 5505 5504 5503 5502 5501 5501 5503 5503 5503 5503 5503 5503
5634 5625 5617 5607 5598 5589 5580 5569 5561 5553 5547 5543 5539 5534 5530 5525 5521 5516 5510 5507 5504 5500 5492 5491 5498 5497 5495 5493 5492 5491 5490 5488 5487 5486 5484 5483 5485 5487 5487 5487 5487 5488 5488
5613 5603 5593 5582 5573 5563 5554 5545 5536 5530 5525 5521 5516 5510 5505 5500 5496 5491 5487 5484 5481 5478 5473 5468 5473 5476 5475 5474 5472 5473 5472 5469 5468 5469 5469 5467 5467 5469 5471 5470 5471 5471 5473
5589 5579 5568 5557 5546 5536 5526 5518 5511 5506 5503 5499 5492 5487 5482 5475 5470 5467 5463 5461 5458 5455 5454 5451 5449 5452 5454 5454 5452 5452 5452 5450 5449 5447 5446 5447 5448 5451 5453 5454 5454 5456 5457
5563 5552 5542 5532 5521 5513 5504 5496 5490 5485 5481 5476 5470 5465 5459 5453 5446 5441 5438 5437 5435 5433 5432 5430 5428 5429 5432 5434 5432 5430 5430 5429 5430 5428 5430 5431 5431 5434 5437 5438 5439 5441 5442
5538 5528 5518 5510 5503 5495 5486 5478 5471 5467 5460 5454 5450 5445 5440 5432 5425 5421 5416 5414 5412 5409 5409 5407 5408 5409 5410 5410 5409 5407 5407 5407 5409 5413 5410 5412 5414 5415 5418 5421 5424 5425 5426
5517 5509 5500 5492 5485 5477 5468 5460 5453 5445 5438 5431 5425 5420 5415 5409 5403 5397 5395 5394 5393 5389 5385 5384 5385 5389 5387 5388 5385 5385 5384 5383 5387 5391 5392 5393 5395 5399 5402 5404 5406 5408 5409
5498 5490 5482 5473 5467 5459 5450 5441 5431 5423 5415 5406 5398 5391 5386 5382 5375 5367 5368 5370 5371 5369 5366 5363 5362 5365 5365 5366 5363 5362 5361 5362 5366 5372 5376 5379 5382 5384 5385 5387 5389 5390 5393
5480 5472 5464 5456 5449 5441 5430 5419 5407 5398 5390 5381 5372 5365 5357 5352 5347 5339 5338 5342 5345 5347 5345 5344 5344 5345 5345 5345 5343 5341 5342 5344 5348 5354 5360 5365 5366 5368 5370 5372 5375 5378 5379
5462 5454 5446 5437 5428 5419 5407 5394 5380 5369 5361 5352 5345 5338 5331 5325 5321 5317 5314 5316 5320 5324 5325 5327 5327 5327 5326 5326 5326 5327 5329 5331 5334 5340 5346 5349 5351 5354 5357 5360 5362 5365 5367